Wolf Point, MT

1:02 PM MST on December 11, 2017 (GMT -0700)
Clayton

Weather History for KOLF - February, 2014

Change the Weather History Date:

Monday, February 3, 2014

  Actual Average Record
Temperature  
Mean Temperature 5 °F -  
Max Temperature 12 °F 27 °F 52 °F (2005)
Min Temperature -2 °F 2 °F -32 °F (2004)
Degree Days  
Heating Degree Days 60    
Cooling Degree Days 0    
Moisture  
Dew Point -6 °F    
Average Humidity 64    
Maximum Humidity 80    
Minimum Humidity 37    
Precipitation  
Precipitation T in 0.01 in 0.00 in (2017)
Month to date precipitation T 0.02  
Year to date precipitation 0.06 0.33  
Sea Level Pressure  
Sea Level Pressure 30.38 in    
Wind  
Wind Speed 7 mph (NW)    
Max Wind Speed 20 mph    
Max Gust Speed -    
Visibility 10 miles    
Events      
T = Trace of Precipitation, MM = Missing Value Source: NWS Daily Summary

Daily Weather History Graph

Daily Weather History Graph

Search for Another Location

Airport or City:

Trip Planner

Search our weather history database for the weather conditions in past years. The results will help you decide how hot, cold, wet, or windy it might be!

Date:

Astronomy

Feb. 03, 2014 Rise Set
Actual Time 7:27 AM MST 5:05 PM MST
Civil Twilight 6:54 AM MST 5:38 PM MST
Nautical Twilight 6:17 AM MST 6:15 PM MST
Astronomical Twilight 5:40 AM MST 6:52 PM MST
Moon 9:07 AM MST (2/3) 10:25 PM MST (2/3)
Length of Visible Light 10h 44m
Length of Day
9h 38m
Waxing Crescent, 20% of the Moon is Illuminated
Feb 3
Waxing Crescent
Feb 6
First Quarter
Feb 14
Full
Feb 22
Last Quarter
Mar 1
New

Hourly Weather History & Observations

Time (MST) Temp. Windchill Dew Point Humidity Pressure Visibility Wind Dir Wind Speed Gust Speed Precip Events Conditions
12:53 AM 1.0 °F -6.7 °F -4.0 °F 79% 30.24 in 10.0 mi WSW 3.5 mph - N/A   Overcast
1:53 AM 3.0 °F -6.4 °F -2.0 °F 80% 30.23 in 10.0 mi SSW 4.6 mph - N/A   Overcast
2:53 AM -0.0 °F -9.9 °F -5.1 °F 79% 30.25 in 10.0 mi SW 4.6 mph - N/A   Overcast
3:53 AM 1.9 °F -10.6 °F -2.9 °F 80% 30.26 in 10.0 mi SW 6.9 mph - N/A   Overcast
4:40 AM 3.0 °F -6.4 °F -2.0 °F 80% 30.14 in 10.0 mi WSW 4.6 mph - N/A   Overcast
4:53 AM 3.0 °F -6.4 °F -2.0 °F 80% 30.28 in 10.0 mi WSW 4.6 mph - N/A   Overcast
5:53 AM 6.1 °F -0.9 °F 1.0 °F 80% 30.30 in 10.0 mi NNW 3.5 mph - N/A   Overcast
6:53 AM 8.1 °F - 1.0 °F 73% 30.31 in 10.0 mi Calm Calm - N/A   Overcast
7:53 AM 8.1 °F -0.5 °F 1.9 °F 76% 30.35 in 10.0 mi West 4.6 mph - N/A   Overcast
8:53 AM 6.1 °F -13.8 °F -2.0 °F 69% 30.39 in 10.0 mi NNE 19.6 mph - N/A   Overcast
9:23 AM 6.1 °F -13.3 °F -2.0 °F 69% 30.24 in 10.0 mi North 18.4 mph - N/A   Scattered Clouds
9:50 AM 6.8 °F -12.4 °F -4.0 °F 61% 30.26 in 10.0 mi NNE 18.4 mph - N/A   Mostly Cloudy
9:53 AM 6.1 °F -12.8 °F -4.0 °F 63% 30.42 in 10.0 mi NNE 17.3 mph - N/A   Mostly Cloudy
10:36 AM 3.9 °F -15.0 °F -8.0 °F 58% 30.28 in 10.0 mi NNE 16.1 mph - N/A   Mostly Cloudy
10:53 AM 5.0 °F -13.6 °F -7.1 °F 58% 30.44 in 10.0 mi NNE 16.1 mph - N/A   Partly Cloudy
11:53 AM 9.0 °F -7.9 °F -8.0 °F 46% 30.43 in 10.0 mi NE 15.0 mph - N/A   Clear
12:53 PM 10.0 °F -5.2 °F -9.9 °F 40% 30.43 in 10.0 mi ENE 12.7 mph - N/A   Clear
1:53 PM 10.9 °F -3.4 °F -9.9 °F 39% 30.43 in 10.0 mi NE 11.5 mph - N/A   Partly Cloudy
2:53 PM 10.9 °F -2.6 °F -11.0 °F 37% 30.44 in 10.0 mi ENE 10.4 mph - N/A   Partly Cloudy
3:53 PM 10.0 °F -0.9 °F -11.0 °F 38% 30.45 in 10.0 mi East 6.9 mph - N/A   Partly Cloudy
4:53 PM 7.0 °F -1.7 °F -9.9 °F 46% 30.45 in 10.0 mi East 4.6 mph - N/A   Clear
5:53 PM 1.9 °F -7.6 °F -11.0 °F 55% 30.48 in 10.0 mi North 4.6 mph - N/A   Mostly Cloudy
6:53 PM -0.9 °F -11.0 °F -11.0 °F 62% 30.51 in 10.0 mi WNW 4.6 mph - N/A   Overcast
7:53 PM -0.9 °F -8.9 °F -9.0 °F 69% 30.52 in 10.0 mi WSW 3.5 mph - N/A   Overcast
8:53 PM -0.0 °F -7.9 °F -7.1 °F 72% 30.54 in 10.0 mi SW 3.5 mph - N/A   Overcast
9:53 PM 1.9 °F -5.6 °F -6.0 °F 69% 30.55 in 10.0 mi WSW 3.5 mph - N/A   Overcast
10:53 PM 1.9 °F -7.6 °F -6.0 °F 69% 30.56 in 9.0 mi SW 4.6 mph - N/A   Overcast
11:53 PM 1.9 °F -5.6 °F -4.0 °F 76% 30.57 in 8.0 mi WSW 3.5 mph - 0.00 in   Overcast